FW7632 Weather Reports


Display with metric or nautical units.
time (UTC)temp
F
wind
direction
speed
MPH
gust
MPH
rain 1hr
in
rain 24hr
in
rain mn
in
humidity
%
barometer
mb
20260902234507 73 101 1.0 6.0 0.00 1.01 1.01 1 1014.2
20260902233101 73 84 1.0 4.0 0.00 1.01 1.01 1 1014.2
20260902231605 74 80 0.0 7.0 0.00 1.01 1.01 1 1013.9
20260902230052 75 107 1.0 7.0 0.00 1.01 1.01 1 1013.6
20260902224554 75 138 3.0 6.0 0.00 1.01 1.01 1 1013.6
20260902223042 75 123 1.0 14.0 0.00 1.01 1.01 1 1013.7
20260902221546 75 126 2.0 8.0 0.00 1.01 1.01 1 1013.9
20260902220035 75 89 3.0 9.0 0.00 1.01 1.01 1 1014.1
20260902214535 75 134 3.0 11.0 0.00 1.01 1.01 1 1014.4
20260902213033 76 292 1.0 3.0 0.00 1.01 1.01 1 1014.6
20260902211539 76 269 0.0 7.0 0.00 1.01 1.01 1 1014.4
20260902210026 77 360 1.0 5.0 0.00 1.01 1.01 1 1014.6
20260902204520 76 146 3.0 6.0 0.00 1.01 1.01 1 1014.4
20260902203016 76 207 3.0 9.0 0.00 1.01 1.01 1 1014.0
20260902201511 76 120 4.0 9.0 0.00 1.01 1.01 1 1014.2
20260902200008 75 102 3.0 9.0 0.00 1.01 1.01 1 1014.5
20260902194502 74 177 2.0 9.0 0.00 1.01 1.01 1 1015.1
20260902193058 74 213 2.0 4.0 0.00 1.01 1.01 1 1015.1
20260902191553 73 218 3.0 7.0 0.00 1.01 1.01 1 1015.2
20260902190049 73 238 1.0 7.0 0.00 1.01 1.01 1 1015.2
20260902184553 72 111 1.0 9.0 0.00 1.01 1.01 1 1015.2
20260902183040 72 134 3.0 8.0 0.00 1.01 1.01 1 1015.0
20260902181541 72 112 3.0 8.0 0.00 1.01 1.01 1 1015.2
20260902180032 72 88 4.0 8.0 0.00 1.01 1.01 1 1015.6
20260902174529 70 97 3.0 8.0 0.00 1.01 1.01 1 1015.8
20260902173023 69 109 4.0 8.0 0.00 1.01 1.01 1 1016.1
20260902171518 69 60 5.0 9.0 0.00 1.01 1.01 1 1016.4
20260902170015 69 88 3.0 13.0 0.00 1.01 1.01 1 1016.5
20260902164510 70 128 6.0 13.0 0.01 1.01 1.01 1 1016.4
20260902163006 70 84 3.0 8.0 0.02 1.01 1.01 1 1016.4
20260902161516 70 111 3.0 9.0 0.02 1.01 1.01 1 1016.3
20260902160008 70 83 4.0 8.0 0.03 1.01 1.01 1 1016.0
20260902154511 71 103 2.0 7.0 0.02 1.00 1.00 1 1016.0
20260902153100 71 246 0.0 5.0 0.06 1.00 1.00 1 1016.2
20260902151555 71 194 1.0 8.0 0.51 0.99 0.99 1 1016.0
20260902150051 70 270 1.0 3.0 0.98 0.98 0.98 1 1016.3
20260902144546 70 130 2.0 5.0 0.98 0.98 0.98 1 1016.1
20260902143042 71 217 2.0 4.0 0.93 0.93 0.93 1 1015.6
20260902141537 71 216 0.0 3.0 0.46 0.64 0.46 1 1016.3
20260902140033 71 269 1.0 3.0 0.00 0.18 0.00 1 1016.1
20260902134536 71 355 0.0 3.0 0.00 0.18 0.00 1 1016.5
20260902133025 71 355 2.0 4.0 0.00 0.18 0.00 1 1016.1
20260902131519 71 247 0.0 4.0 0.00 0.98 0.00 1 1016.1
20260902130015 71 248 0.0 5.0 0.00 0.98 0.00 1 1016.0
20260902124510 70 48 0.0 2.0 0.00 0.98 0.00 1 1016.0
20260902123007 70 48 0.0 1.0 0.00 0.98 0.00 1 1015.7
20260902121501 70 49 0.0 1.0 0.00 1.45 0.00 1 1015.7
20260902120057 69 47 0.0 2.0 0.00 1.45 0.00 1 1015.3
20260902114557 69 48 0.0 1.0 0.00 1.45 0.00 1 1015.3
20260902113103 69 49 0.0 2.0 0.00 1.45 0.00 1 1015.1
20260902111554 68 50 0.0 1.0 0.00 1.46 0.00 1 1015.1
20260902110055 68 50 0.0 1.0 0.00 1.46 0.00 1 1015.1
20260902104556 68 53 0.0 0.0 0.00 1.46 0.00 1 1015.3
20260902103047 68 53 0.0 0.0 0.00 1.46 0.00 1 1015.4
20260902101541 69 53 0.0 0.0 0.00 1.46 0.00 1 1015.4
20260902100042 69 49 0.0 1.0 0.00 1.46 0.00 1 1015.4
20260902094533 69 51 0.0 2.0 0.00 1.46 0.00 1 1015.3
20260902093028 69 51 0.0 0.0 0.00 1.46 0.00 1 1015.3
20260902091527 69 51 0.0 0.0 0.00 1.47 0.00 1 1015.3
20260902090024 69 61 0.0 0.0 0.00 1.47 0.00 1 1015.3
20260902084525 69 66 0.0 0.0 0.00 1.47 0.00 1 1015.4
20260902083015 70 55 0.0 1.0 0.00 1.47 0.00 1 1015.4
20260902081510 70 69 0.0 2.0 0.00 1.50 0.00 1 1015.1
20260902080005 70 42 0.0 1.0 0.00 1.50 0.00 1 1015.1
20260902074501 70 360 0.0 0.0 0.00 1.50 0.00 1 1015.2
20260902073059 71 360 0.0 3.0 0.00 1.50 0.00 1 1015.1
20260902071552 71 60 0.0 2.0 0.00 1.50 0.00 1 1015.2
20260902070047 71 53 0.0 2.0 0.00 1.50 0.00 1 1015.2
20260902064549 71 59 0.0 3.0 0.00 1.50 0.00 1 1015.3
20260902063049 71 62 0.0 1.0 0.00 1.50 0.00 1 1015.2
20260902061534 71 54 0.0 0.0 0.00 1.50 0.00 1 1015.4
20260902060034 71 360 0.0 1.0 0.00 1.50 0.00 1 1015.4
20260902054525 71 67 0.0 3.0 0.00 1.50 0.00 1 1015.3
20260902053020 72 57 0.0 2.0 0.00 1.50 0.00 1 1015.3
20260902051518 72 59 0.0 2.0 0.00 1.50 0.00 1 1015.3
20260902050011 72 60 1.0 2.0 0.00 1.50 0.00 1 1015.1
20260902044507 71 360 0.0 0.0 0.00 1.50 0.00 1 1015.2
20260902043003 72 58 0.0 0.0 0.00 1.50 0.00 1 1015.1
20260902041604 72 360 0.0 1.0 0.00 1.50 1.50 1 1014.9
20260902040054 72 56 0.0 0.0 0.00 1.50 1.50 1 1014.7
20260902034549 72 56 0.0 1.0 0.00 1.50 1.50 1 1014.8
20260902033046 72 51 0.0 1.0 0.00 1.50 1.50 1 1014.5
20260902031539 72 58 0.0 2.0 0.00 1.50 1.50 1 1014.5
20260902030035 72 360 0.0 1.0 0.00 1.50 1.50 1 1014.4
20260902024531 73 28 0.0 1.0 0.00 1.50 1.50 1 1014.2
20260902023035 73 25 0.0 1.0 0.00 1.50 1.50 1 1014.3
20260902021522 74 25 0.0 0.0 0.00 1.50 1.50 1 1014.4
20260902020021 74 25 0.0 0.0 0.00 1.50 1.50 1 1014.4
20260902014528 74 25 0.0 3.0 0.00 1.50 1.50 1 1014.2
20260902013009 75 25 1.0 2.0 0.00 1.50 1.50 1 1014.1
20260902011508 75 25 0.0 1.0 0.00 1.56 1.50 1 1014.0
20260902010109 75 25 0.0 1.0 0.00 1.56 1.50 1 1014.0
20260902004556 76 25 0.0 2.0 0.00 1.56 1.50 1 1013.6
20260902003052 77 25 0.0 1.0 0.00 1.56 1.50 1 1013.5
20260902001547 77 25 0.0 0.0 0.00 1.56 1.50 1 1013.2
20260902000048 78 25 0.0 0.0 0.00 1.56 1.50 1 1012.9